Simultaneous Nadir Overpasses (SNOs) Predictions

Prediction of SNOs between METOP-B and TERRA Satellite Orbit:

Table of predicted SNOs for the next 14.0 days since TLE Epoch: 6/11/2022
Index Date (METOP-B) Time (METOP-B) Lat,Lon (METOP-B) SZA (METOP-B ) Date (TERRA) Time (TERRA) Lat,Lon (TERRA) SZA (TERRA ) Distance(km) Time Diff (sec)
1 06/11/2022 09:40:34 -81.17,-104.25 119.66 06/11/2022 09:41:20 -81.17,-104.35 119.65 1.72 46
2 06/11/2022 10:31:14 81.18, 63.32 60.38 06/11/2022 10:30:46 81.17, 63.38 60.37 1.10 28
3 06/14/2022 05:14:56 -81.17, -37.78 119.83 06/14/2022 05:15:30 -81.17, -37.89 119.83 1.96 34
4 06/14/2022 06:05:35 81.19, 130.13 60.25 06/14/2022 06:04:55 81.20, 130.17 60.24 1.07 40
5 06/17/2022 00:49:19 -81.17, 28.65 119.95 06/17/2022 00:49:41 -81.17, 28.47 119.97 3.21 22
6 06/17/2022 01:39:58 81.19,-163.48 60.12 06/17/2022 01:39:06 81.19,-163.49 60.10 0.26 52
7 06/19/2022 20:23:42 -81.17, 95.05 120.03 06/19/2022 20:23:51 -81.18, 95.11 120.01 1.25 9
8 06/19/2022 21:14:21 81.19, -97.12 60.04 06/19/2022 21:13:17 81.18, -97.24 59.99 2.30 64
9 06/22/2022 15:07:24 81.16, -6.45 59.89 06/22/2022 15:08:34 81.16, -6.34 59.93 1.92 70



Historial Predications of SNOs between METOP-B and TERRA
